TimeEST,TemperatureF,Dew PointF,Humidity,Sea Level PressureIn,VisibilityMPH,Wind Direction,Wind SpeedMPH,Gust SpeedMPH,PrecipitationIn,Events,Conditions,WindDirDegrees,DateUTC
12:15 AM,35.6,23.0,60,30.25,10.0,North,13.8,21.9,N/A,,Clear,350,2013-03-09 05:15:00
12:35 AM,35.6,23.0,60,30.25,10.0,North,10.4,17.3,N/A,,Clear,350,2013-03-09 05:35:00
12:55 AM,35.6,23.0,60,30.25,10.0,NNW,10.4,-,N/A,,Clear,340,2013-03-09 05:55:00
1:15 AM,35.6,23.0,60,30.25,10.0,North,9.2,-,N/A,,Clear,360,2013-03-09 06:15:00
1:35 AM,35.6,23.0,60,30.25,10.0,North,8.1,-,N/A,,Clear,350,2013-03-09 06:35:00
1:55 AM,33.8,23.0,65,30.25,10.0,NNW,9.2,-,N/A,,Clear,340,2013-03-09 06:55:00
2:15 AM,33.8,23.0,65,30.25,10.0,North,9.2,-,N/A,,Clear,350,2013-03-09 07:15:00
2:35 AM,33.8,21.2,60,30.24,10.0,NNW,9.2,-,N/A,,Clear,330,2013-03-09 07:35:00
2:55 AM,33.8,21.2,60,30.23,10.0,NW,9.2,-,N/A,,Clear,320,2013-03-09 07:55:00
3:15 AM,33.8,21.2,60,30.24,10.0,NW,9.2,-,N/A,,Clear,320,2013-03-09 08:15:00
3:35 AM,33.8,21.2,60,30.24,10.0,NNW,11.5,-,N/A,,Clear,330,2013-03-09 08:35:00
4:15 AM,33.8,21.2,60,30.25,10.0,NW,13.8,-,N/A,,Clear,320,2013-03-09 09:15:00
4:35 AM,32.0,21.2,64,30.25,10.0,NW,10.4,-,N/A,,Clear,320,2013-03-09 09:35:00
4:55 AM,32.0,21.2,64,30.25,10.0,NW,11.5,-,N/A,,Clear,320,2013-03-09 09:55:00
5:15 AM,32.0,21.2,64,30.26,10.0,NW,10.4,-,N/A,,Clear,310,2013-03-09 10:15:00
5:35 AM,32.0,21.2,64,30.26,10.0,NW,11.5,-,N/A,,Clear,320,2013-03-09 10:35:00
5:55 AM,32.0,21.2,64,30.26,10.0,NNW,11.5,-,N/A,,Clear,340,2013-03-09 10:55:00
6:15 AM,32.0,21.2,64,30.27,10.0,North,12.7,-,N/A,,Clear,360,2013-03-09 11:15:00
6:35 AM,33.8,21.2,60,30.28,10.0,North,12.7,-,N/A,,Clear,350,2013-03-09 11:35:00
7:15 AM,33.8,21.2,60,30.29,10.0,NW,8.1,-,N/A,,Clear,320,2013-03-09 12:15:00
8:15 AM,37.4,23.0,56,30.30,10.0,North,11.5,16.1,N/A,,Clear,360,2013-03-09 13:15:00
8:35 AM,39.2,23.0,52,30.30,10.0,North,10.4,-,N/A,,Clear,350,2013-03-09 13:35:00
8:55 AM,41.0,23.0,49,30.30,10.0,North,8.1,-,N/A,,Clear,350,2013-03-09 13:55:00
9:15 AM,42.8,23.0,46,30.30,10.0,NNW,9.2,-,N/A,,Clear,340,2013-03-09 14:15:00
9:35 AM,44.6,23.0,43,30.31,10.0,North,11.5,-,N/A,,Clear,350,2013-03-09 14:35:00
10:15 AM,46.4,21.2,37,30.32,10.0,North,10.4,-,N/A,,Clear,10,2013-03-09 15:15:00
10:35 AM,48.2,21.2,34,30.31,10.0,North,10.4,-,N/A,,Clear,10,2013-03-09 15:35:00
10:55 AM,50.0,21.2,32,30.31,10.0,NW,12.7,-,N/A,,Clear,320,2013-03-09 15:55:00
11:15 AM,51.8,21.2,30,30.31,10.0,North,11.5,-,N/A,,Clear,360,2013-03-09 16:15:00
11:35 AM,51.8,21.2,30,30.31,10.0,North,9.2,-,N/A,,Clear,360,2013-03-09 16:35:00
11:55 AM,53.6,21.2,28,30.31,10.0,North,5.8,-,N/A,,Clear,10,2013-03-09 16:55:00
12:15 PM,55.4,21.2,26,30.30,10.0,North,8.1,-,N/A,,Clear,350,2013-03-09 17:15:00
12:35 PM,55.4,21.2,26,30.28,10.0,NNW,6.9,-,N/A,,Clear,340,2013-03-09 17:35:00
12:55 PM,55.4,19.4,25,30.27,10.0,WNW,4.6,-,N/A,,Clear,300,2013-03-09 17:55:00
1:15 PM,57.2,21.2,25,30.26,10.0,WNW,4.6,-,N/A,,Clear,300,2013-03-09 18:15:00
1:35 PM,57.2,21.2,25,30.26,10.0,NNW,9.2,-,N/A,,Clear,340,2013-03-09 18:35:00
1:55 PM,57.2,19.4,23,30.25,10.0,North,6.9,-,N/A,,Clear,10,2013-03-09 18:55:00
2:15 PM,57.2,19.4,23,30.25,10.0,North,9.2,-,N/A,,Clear,360,2013-03-09 19:15:00
2:35 PM,57.2,19.4,23,30.25,10.0,NNW,9.2,-,N/A,,Clear,330,2013-03-09 19:35:00
2:55 PM,59.0,19.4,22,30.25,10.0,North,6.9,-,N/A,,Clear,350,2013-03-09 19:55:00
3:15 PM,59.0,19.4,22,30.25,10.0,NNW,5.8,-,N/A,,Clear,330,2013-03-09 20:15:00
3:35 PM,59.0,19.4,22,30.25,10.0,NW,6.9,-,N/A,,Clear,320,2013-03-09 20:35:00
3:55 PM,60.8,19.4,20,30.25,10.0,NW,5.8,-,N/A,,Clear,320,2013-03-09 20:55:00
4:15 PM,59.0,19.4,22,30.25,10.0,WNW,4.6,-,N/A,,Clear,300,2013-03-09 21:15:00
4:35 PM,59.0,19.4,22,30.25,10.0,WNW,6.9,-,N/A,,Clear,300,2013-03-09 21:35:00
4:55 PM,59.0,17.6,20,30.25,10.0,North,5.8,-,N/A,,Clear,360,2013-03-09 21:55:00
5:15 PM,57.2,17.6,21,30.25,10.0,North,6.9,-,N/A,,Clear,350,2013-03-09 22:15:00
5:35 PM,57.2,17.6,21,30.25,10.0,North,3.5,-,N/A,,Clear,350,2013-03-09 22:35:00
5:55 PM,55.4,15.8,21,30.26,10.0,NNW,5.8,-,N/A,,Clear,340,2013-03-09 22:55:00
6:15 PM,53.6,17.6,24,30.26,10.0,NNW,3.5,-,N/A,,Clear,340,2013-03-09 23:15:00
6:35 PM,53.6,15.8,22,30.26,10.0,North,3.5,-,N/A,,Clear,350,2013-03-09 23:35:00
6:55 PM,51.8,17.6,26,30.27,10.0,WNW,4.6,-,N/A,,Clear,300,2013-03-09 23:55:00
7:15 PM,48.2,21.2,34,30.27,10.0,NW,3.5,-,N/A,,Clear,310,2013-03-10 00:15:00
7:35 PM,44.6,23.0,43,30.28,10.0,WNW,4.6,-,N/A,,Clear,300,2013-03-10 00:35:00
7:55 PM,48.2,21.2,34,30.28,10.0,WNW,3.5,-,N/A,,Clear,290,2013-03-10 00:55:00
8:15 PM,44.6,23.0,43,30.28,10.0,Calm,Calm,-,N/A,,Clear,0,2013-03-10 01:15:00
8:35 PM,46.4,23.0,40,30.29,10.0,North,3.5,-,N/A,,Clear,360,2013-03-10 01:35:00
8:55 PM,46.4,21.2,37,30.29,10.0,Calm,Calm,-,N/A,,Clear,0,2013-03-10 01:55:00
9:15 PM,46.4,23.0,40,30.29,10.0,Calm,Calm,-,N/A,,Clear,0,2013-03-10 02:15:00
9:35 PM,44.6,23.0,43,30.30,10.0,Calm,Calm,-,N/A,,Clear,0,2013-03-10 02:35:00
9:55 PM,44.6,23.0,43,30.30,10.0,Calm,Calm,-,N/A,,Clear,0,2013-03-10 02:55:00
10:15 PM,44.6,21.2,39,30.30,10.0,Calm,Calm,-,N/A,,Clear,0,2013-03-10 03:15:00
10:35 PM,42.8,21.2,42,30.30,10.0,Calm,Calm,-,N/A,,Clear,0,2013-03-10 03:35:00
10:55 PM,42.8,23.0,46,30.30,10.0,Calm,Calm,-,N/A,,Clear,0,2013-03-10 03:55:00
11:15 PM,41.0,23.0,49,30.30,10.0,Calm,Calm,-,N/A,,Clear,0,2013-03-10 04:15:00
11:35 PM,39.2,21.2,49,30.30,10.0,East,3.5,-,N/A,,Clear,80,2013-03-10 04:35:00
11:55 PM,39.2,21.2,49,30.31,10.0,Calm,Calm,-,N/A,,Clear,0,2013-03-10 04:55:00